Weather History for KAMW - July, 2013

Change the Weather History Date:

Monday, July 1, 2013

  Actual Average Record
Temperature  
Mean Temperature 69 °F 73 °F  
Max Temperature 82 °F 84 °F 95 °F (2011)
Min Temperature 56 °F 62 °F 55 °F (2001)
Degree Days  
Heating Degree Days 0 0  
Month to date heating degree days 0 0  
Since 1 June heating degree days 42 24  
Since 1 July heating degree days 0 0  
Cooling Degree Days 4 8  
Month to date cooling degree days 4 8  
Year to date cooling degree days 246 231  
Since 1 June cooling degree days 191 182  
Growing Degree Days 19 (Base 50)    
Moisture  
Dew Point 52 °F    
Average Humidity 61    
Maximum Humidity 86    
Minimum Humidity 35    
Precipitation  
Precipitation 0.00 in 0.18 in 0.31 in (2001)
Month to date precipitation 0.00 0.18  
Sea Level Pressure  
Sea Level Pressure 30.11 in    
Wind  
Wind Speed 7 mph (NNE)    
Max Wind Speed 20 mph    
Max Gust Speed 29 mph    
Visibility 9 miles    
Events      
T = Trace of Precipitation, MM = Missing Value Source: NWS Daily Summary

Daily Weather History Graph

Daily Weather History Graph

Search for Another Location

Airport or City:

Trip Planner

Search our weather history database for the weather conditions in past years. The results will help you decide how hot, cold, wet, or windy it might be!

Date:

Astronomy

Jul. 01, 2013 Rise Set
Actual Time 5:42 AM CDT 8:53 PM CDT
Civil Twilight 5:08 AM CDT 9:27 PM CDT
Nautical Twilight 4:24 AM CDT 10:11 PM CDT
Astronomical Twilight 3:31 AM CDT 11:04 PM CDT
Moon 1:16 AM CDT (7/1) 3:06 PM CDT (7/1)
Length of Visible Light 16h 19m
Length of Day
15h 10m
Waning Crescent, 35% of the Moon is Illuminated
Jul 1
Waning Crescent
Jul 8
New
Jul 15
First Quarter
Jul 22
Full
Jul 29
Last Quarter

Hourly Weather History & Observations

Time (CDT) Temp. Dew Point Humidity Pressure Visibility Wind Dir Wind Speed Gust Speed Precip Events Conditions
12:53 AM 61.0 °F 51.1 °F 70% 30.09 in 9.0 mi NNW 3.5 mph - N/A   Clear
1:53 AM 57.9 °F 52.0 °F 81% 30.09 in 9.0 mi North 3.5 mph - N/A   Clear
2:53 AM 57.0 °F 51.1 °F 81% 30.10 in 9.0 mi NNW 3.5 mph - N/A   Clear
3:53 AM 57.0 °F 51.1 °F 81% 30.10 in 9.0 mi Calm Calm - N/A   Clear
4:53 AM 57.0 °F 51.1 °F 81% 30.11 in 9.0 mi Calm Calm - N/A   Clear
5:53 AM 57.0 °F 51.1 °F 81% 30.12 in 8.0 mi North 3.5 mph - N/A   Clear
6:53 AM 57.9 °F 53.1 °F 84% 30.13 in 7.0 mi North 5.8 mph - N/A   Clear
7:53 AM 63.0 °F 54.0 °F 72% 30.14 in 8.0 mi North 5.8 mph - N/A   Clear
8:53 AM 69.1 °F 57.0 °F 65% 30.14 in 8.0 mi North 6.9 mph - N/A   Clear
9:53 AM 73.9 °F 57.0 °F 55% 30.14 in 10.0 mi NNE 6.9 mph - N/A   Clear
10:53 AM 78.1 °F 55.9 °F 46% 30.13 in 10.0 mi NNE 8.1 mph - N/A   Clear
11:53 AM 80.1 °F 52.0 °F 38% 30.13 in 10.0 mi NE 10.4 mph 19.6 mph N/A   Clear
12:53 PM 80.1 °F 51.1 °F 36% 30.12 in 10.0 mi NE 12.7 mph 19.6 mph N/A   Clear
1:53 PM 81.0 °F 51.1 °F 35% 30.12 in 10.0 mi NNE 12.7 mph - N/A   Clear
2:53 PM 81.0 °F 51.1 °F 35% 30.11 in 10.0 mi NE 15.0 mph 26.5 mph N/A   Partly Cloudy
3:53 PM 81.0 °F 50.0 °F 34% 30.11 in 10.0 mi NE 16.1 mph 21.9 mph N/A   Clear
4:53 PM 80.1 °F 50.0 °F 35% 30.10 in 10.0 mi NE 15.0 mph 25.3 mph N/A   Clear
5:53 PM 80.1 °F 51.1 °F 36% 30.10 in 10.0 mi NE 13.8 mph 19.6 mph N/A   Clear
6:53 PM 78.1 °F 50.0 °F 37% 30.10 in 10.0 mi ENE 13.8 mph - N/A   Clear
7:53 PM 75.9 °F 50.0 °F 40% 30.11 in 10.0 mi ENE 6.9 mph - N/A   Clear
8:53 PM 73.0 °F 50.0 °F 44% 30.10 in 10.0 mi Calm Calm - N/A   Clear
9:53 PM 68.0 °F 52.0 °F 56% 30.12 in 10.0 mi NW 3.5 mph - N/A   Clear
10:53 PM 63.0 °F 54.0 °F 72% 30.12 in 10.0 mi Calm Calm - N/A   Clear
11:53 PM 61.0 °F 55.0 °F 81% 30.12 in 10.0 mi Calm Calm - N/A   Clear